Weather History for Hayward, WI

Change the Weather History Date:

Monday, September 24, 2012

  Actual Average Record
Temperature  
Mean Temperature 50 °F -  
Max Temperature 71 °F 59 °F 84 °F (2007)
Min Temperature 28 °F 26 °F 21 °F (2000)
Degree Days  
Heating Degree Days 16    
Moisture  
Dew Point 33 °F    
Average Humidity 56    
Maximum Humidity 88    
Minimum Humidity 26    
Precipitation  
Precipitation 0.00 in - - ()
Sea Level Pressure  
Sea Level Pressure 29.88 in    
Wind  
Wind Speed 3 mph (WSW)    
Max Wind Speed 13 mph    
Max Gust Speed 26 mph    
Visibility 10 miles    
Events      
Averages and records for this station are not official NWS values.
T = Trace of Precipitation, MM = Missing Value Source: NWS Daily Summary

Daily Weather History Graph

Daily Weather History Graph

Search for Another Location

Airport:

Trip Planner

Search our weather history database for the weather conditions in past years. The results will help you decide how hot, cold, wet, or windy it might be!

Date:

Astronomy

Sep. 24, 2012 Rise Set
Actual Time 6:55 AM CDT 6:58 PM CDT
Civil Twilight 6:26 AM CDT 7:28 PM CDT
Nautical Twilight 5:51 AM CDT 8:03 PM CDT
Astronomical Twilight 5:15 AM CDT 8:38 PM CDT
Moon 3:58 PM CDT (9/24) 12:56 AM CDT (9/24)
Length of Visible Light 13h 02m
Length of Day
12h 02m
Waxing Gibbous, 71% of the Moon is Illuminated
Sep 24
Waxing Gibbous
Sep 29
Full
Oct 8
Last Quarter
Oct 15
New
Oct 21
First Quarter

Hourly Weather History & Observations

Time (CDT) Temp. Windchill Dew Point Humidity Pressure Visibility Wind Dir Wind Speed Gust Speed Precip Events Conditions
12:53 AM 30.0 °F - 27.0 °F 88% 30.13 in 10.0 mi Calm Calm - N/A   Clear
1:53 AM 28.0 °F - 25.0 °F 88% 30.12 in 10.0 mi Calm Calm - N/A   Clear
2:53 AM 28.0 °F - 25.0 °F 88% 30.09 in 10.0 mi Calm Calm - N/A   Clear
3:53 AM 30.0 °F - 26.1 °F 85% 30.07 in 10.0 mi Calm Calm - N/A   Clear
4:53 AM 32.0 °F - 27.0 °F 82% 30.04 in 10.0 mi Calm Calm - N/A   Clear
5:53 AM 32.0 °F - 28.0 °F 85% 30.01 in 10.0 mi Calm Calm - N/A   Clear
6:53 AM 34.0 °F - 28.9 °F 82% 29.99 in 10.0 mi Calm Calm - N/A   Clear
7:53 AM 34.0 °F - 30.0 °F 85% 29.97 in 10.0 mi Calm Calm - N/A   Clear
8:53 AM 45.0 °F 41.8 °F 30.9 °F 58% 29.94 in 10.0 mi SW 5.8 mph - N/A   Clear
9:50 AM 48.2 °F - 30.2 °F 50% 29.88 in 10.0 mi Variable 4.6 mph - N/A   Partly Cloudy
9:53 AM 48.0 °F - 30.9 °F 52% 29.91 in 10.0 mi SW 5.8 mph - N/A   Partly Cloudy
10:53 AM 57.9 °F - 33.1 °F 39% 29.86 in 10.0 mi SW 8.1 mph - N/A   Clear
11:53 AM 62.1 °F - 34.0 °F 35% 29.83 in 10.0 mi Variable 6.9 mph 16.1 mph N/A   Clear
12:53 PM 66.0 °F - 33.1 °F 29% 29.79 in 10.0 mi WSW 9.2 mph 17.3 mph N/A   Clear
1:53 PM 68.0 °F - 32.0 °F 26% 29.75 in 10.0 mi WSW 12.7 mph 20.7 mph N/A   Clear
2:53 PM 70.0 °F - 33.1 °F 26% 29.73 in 10.0 mi WSW 12.7 mph 26.5 mph N/A   Clear
3:53 PM 71.1 °F - 34.0 °F 26% 29.70 in 10.0 mi WSW 9.2 mph 25.3 mph N/A   Clear
4:53 PM 71.1 °F - 36.0 °F 28% 29.70 in 10.0 mi SW 9.2 mph - N/A   Clear
5:53 PM 69.1 °F - 36.0 °F 30% 29.71 in 10.0 mi Variable 5.8 mph 16.1 mph N/A   Overcast
6:53 PM 66.9 °F - 37.0 °F 33% 29.72 in 10.0 mi Calm Calm - N/A   Overcast
7:53 PM 57.9 °F - 41.0 °F 53% 29.76 in 10.0 mi Calm Calm - N/A   Overcast
8:53 PM 57.9 °F - 41.0 °F 53% 29.77 in 10.0 mi Variable 5.8 mph - N/A   Mostly Cloudy
9:53 PM 55.0 °F - 39.9 °F 57% 29.80 in 10.0 mi NNE 4.6 mph - N/A   Mostly Cloudy
10:53 PM 54.0 °F - 39.0 °F 57% 29.81 in 10.0 mi NE 5.8 mph - N/A   Overcast
11:53 PM 53.1 °F - 37.9 °F 57% 29.82 in 10.0 mi NE 8.1 mph - N/A   Overcast